Aeroporto :
LOGIN :

Iscrizione | Disclaimer

   EN    FR    IT 

 










Sommario :    VFR   VFR Marginale   IFR   IFR Intensivo   IFR Molto Intensivo
Visibilità : 
Base nubi : 
>= 8 km
>= 3000ft
5 / 8 km
1000 / 3000 ft
1500m / 5 km
500 / 1000 ft
800 / 1500m
200 / 500 ft
< 800m
< 200 ft
Simboli :   Temporali  Nebbia  Neve Forte  Precipitazioni Forti  Vento > 20 kt
SIGMETs :   Varie  Temporali  Ghiacco  Turbolenza  Onda orograficha  Ceneri Vulcaniche







- Altitudine del aeroporto : 23 ft
- Codice IATA : XFW


EDHI - Hamburg Finkenwerder

ULTIMO METAR :
  • 171450Z 28008KT CAVOK 29/13 Q1012

METARs OBSOLETI :
  • 171420Z 28008KT 230V310 CAVOK 29/13 Q1012
  • 171350Z 25007KT 190V330 CAVOK 29/13 Q1012
  • 171320Z 29005KT 250V020 CAVOK 29/13 Q1012
  • 171250Z 27007KT 210V300 CAVOK 29/12 Q1012
  • 171220Z 27007KT 230V310 CAVOK 28/13 Q1013

TAF TAF EDHI
Valido dal 17 a 15 ore il 17 a 21 ore UTC


171400Z 1715/1721 30008KT CAVOK
Nessun NOTAM noto per questo aeroporto.



MetMap, La meteo Aeronautica in un colpo d'occhio ! - Copyright ORBIFLY Dicembre 2007 - Disclaimer

ORBIFLY MET'MAP TEAM :

Programmazione e sviluppo : Alexandra Zaïnal
Concezione e sviluppo : Baudouin d'Aumeries
Co-Programmazione e sviluppo : Marc-Olivier Méhu
Supporto tecnico e logistico : Manuel Goepfert
Aiuto per la traduzione : Arnaldo La Scala

Contatto : metmap@orbifly.com




FONTI E CREDITI :

   NOAA